Regional Weather Roundup
Issued by NWS

Home | Current Version | Previous Version | Text Only | Print | Product List | Glossary Off
Versions: 1 2 3 4 5 6 7 8 9 10 11 12 13 14 15 16 17 18 19 20 21 22 23 24 25 26 27 28 29 30

000
ASUS45 KCYS 212010
RWRWY

WYOMING REGIONAL WEATHER ROUNDUP
NATIONAL WEATHER SERVICE CHEYENNE WY
200 PM MDT TUE OCT 21 2014

NOTE:  "FAIR" INDICATES FEW OR NO CLOUDS BELOW 12,000 FEET
WITH NO SIGNIFICANT WEATHER AND/OR OBSTRUCTIONS TO VISIBILITY.

WYZ001-212100-
YELLOWSTONE NATIONAL PARK

CITY           SKY/WX    TMP DP  RH WIND       PRES   REMARKS
LK YELLOWSTONE   N/A     38  32  79 W12G25    30.01F WCI  30
W YELLOWSTONE  NOT AVBL

$$
WYZ002>013-054>058-071-098>099-212100-
NORTHERN WYOMING

CITY           SKY/WX    TMP DP  RH WIND       PRES   REMARKS
JACKSON        CLOUDY    45  37  76 S16       30.02R
CODY           CLOUDY   N/A N/A N/A W10G17    29.78F
GREYBULL       CLOUDY    72  35  25 NW9       29.72F
WORLAND        LGT RAIN  76  38  25 SW21      29.74F
SHERIDAN       MOSUNNY   78  32  18 SW20      29.68F
BUFFALO        LGT RAIN  77  30  17 SW20G37   29.76F
GILLETTE       SUNNY     77  38  24 S21G29    29.74F
HULETT         FAIR      77  37  24 S20G26    29.75
NEWCASTLE      FAIR      77  34  20 MISG      29.80

$$
WYZ014>020-022>026-101>103-212100-
CENTRAL WYOMING

CITY           SKY/WX    TMP DP  RH WIND       PRES   REMARKS
BIG PINEY      TSTM      49  42  77 W16       29.99S
PINEDALE       CLOUDY    54  37  54 CALM      29.97F
DUBOIS         RAIN      43  37  81 W18G40    29.95R
LANDER         PTSUNNY   69  34  27 W12G20    29.82F
RIVERTON       SUNNY     70  32  24 SW20G30   29.83F
CASPER         SUNNY     73  37  27 SW25G31   29.86F
DOUGLAS        MOSUNNY   76  36  23 SW21G31   29.86F

$$
WYZ021-027>030-104>119-212100-
SOUTHERN WYOMING

CITY           SKY/WX    TMP DP  RH WIND       PRES   REMARKS
EVANSTON       PTSUNNY   55  36  48 W23G30    30.03R
KEMMERER       MOCLDY    55  37  50 W20G31    30.02R
FORT BRIDGER   MOCLDY    59  38  45 W17G24    30.02F
ROCK SPRINGS   PTSUNNY   62  34  35 S16       29.96F
DIXON          MOCLDY    62  39  41 SW8G20    30.04F
RAWLINS        MOSUNNY   64  37  36 SW24G37   29.99F
SARATOGA       FAIR      61  36  39 SW16G26   30.04F
LARAMIE        LGT RAIN  59  37  44 SW21G28   30.04F
CHEYENNE       MOSUNNY   70  32  24 SW14      29.97F
TORRINGTON     MOSUNNY   79  39  23 W10G17    29.85F
PINE BLUFFS    FAIR      77  34  20 SE10      29.93F

$$



USA.gov is the U.S. government's official web portal to all federal, state and local government web resources and services.